Weather History for Wooster, OH

Change the Weather History Date:

Tuesday, December 11, 2012

  Actual Average Record
Temperature  
Mean Temperature 32 °F -  
Max Temperature 37 °F 38 °F 63 °F (2007)
Min Temperature 28 °F 25 °F 15 °F (2013)
Degree Days  
Heating Degree Days 32    
Moisture  
Dew Point 27 °F    
Average Humidity 80    
Maximum Humidity 88    
Minimum Humidity 67    
Precipitation  
Precipitation 0.00 in - - ()
Sea Level Pressure  
Sea Level Pressure 30.05 in    
Wind  
Wind Speed 8 mph (West)    
Max Wind Speed 20 mph    
Max Gust Speed 23 mph    
Visibility 10 miles    
Events Snow    
Averages and records for this station are not official NWS values.
T = Trace of Precipitation, MM = Missing Value Source: NWS Daily Summary

Daily Weather History Graph

Daily Weather History Graph

Search for Another Location

Airport:

Trip Planner

Search our weather history database for the weather conditions in past years. The results will help you decide how hot, cold, wet, or windy it might be!

Date:

Astronomy

Dec. 11, 2012 Rise Set
Actual Time 7:42 AM EST 4:59 PM EST
Civil Twilight 7:11 AM EST 5:30 PM EST
Nautical Twilight 6:36 AM EST 6:05 PM EST
Astronomical Twilight 6:03 AM EST 6:38 PM EST
Moon 5:35 AM EST (12/11) 3:38 PM EST (12/11)
Length of Visible Light 10h 19m
Length of Day
9h 17m
Waning Crescent, 4% of the Moon is Illuminated
Dec 11
Waning Crescent
Dec 13
New
Dec 20
First Quarter
Dec 28
Full
Jan 4
Last Quarter

Hourly Weather History & Observations

Time (EST) Temp. Windchill Dew Point Humidity Pressure Visibility Wind Dir Wind Speed Gust Speed Precip Events Conditions
12:05 AM 32.0 °F 24.2 °F 28.4 °F 87% 29.84 in 8.0 mi NNW 9.2 mph - N/A   Overcast
12:56 AM 32.0 °F 25.6 °F 28.9 °F 88% 29.88 in 10.0 mi NW 6.9 mph - N/A   Overcast
1:39 AM 32.0 °F 26.4 °F 28.4 °F 87% 29.85 in 10.0 mi NW 5.8 mph - N/A   Overcast
1:56 AM 32.0 °F 25.6 °F 28.9 °F 88% 29.88 in 10.0 mi NW 6.9 mph - N/A   Overcast
2:56 AM 32.0 °F 25.6 °F 28.9 °F 88% 29.91 in 10.0 mi West 6.9 mph - N/A   Overcast
3:56 AM 32.0 °F 26.4 °F 28.9 °F 88% 29.92 in 10.0 mi West 5.8 mph - N/A   Overcast
4:56 AM 32.0 °F 26.4 °F 28.0 °F 85% 29.94 in 10.0 mi West 5.8 mph - N/A   Overcast
5:56 AM 32.0 °F 26.4 °F 28.0 °F 85% 29.96 in 10.0 mi West 5.8 mph - N/A   Overcast
6:56 AM 32.0 °F 27.5 °F 28.9 °F 88% 29.99 in 10.0 mi WSW 4.6 mph - N/A   Overcast
7:56 AM 32.0 °F 27.5 °F 28.9 °F 88% 30.01 in 9.0 mi WSW 4.6 mph - N/A   Overcast
8:56 AM 32.0 °F 27.5 °F 28.9 °F 88% 30.04 in 7.0 mi WSW 4.6 mph - N/A   Clear
9:56 AM 33.1 °F 25.5 °F 28.9 °F 85% 30.06 in 8.0 mi WSW 9.2 mph - N/A   Partly Cloudy
10:41 AM 35.6 °F 24.8 °F 28.4 °F 75% 30.04 in 10.0 mi WNW 19.6 mph 23.0 mph N/A   Overcast
10:56 AM 33.1 °F 23.9 °F 28.0 °F 82% 30.08 in 8.0 mi WNW 12.7 mph 21.9 mph 0.00 in Snow Light Snow
12:56 PM 37.0 °F 31.0 °F 27.0 °F 67% 30.08 in 10.0 mi WSW 8.1 mph - N/A   Partly Cloudy
1:56 PM 35.1 °F 26.9 °F 27.0 °F 72% 30.08 in 10.0 mi West 11.5 mph - N/A   Overcast
2:56 PM 35.1 °F 26.9 °F 25.0 °F 67% 30.09 in 10.0 mi West 11.5 mph - N/A   Mostly Cloudy
3:56 PM 34.0 °F 26.0 °F 26.1 °F 73% 30.11 in 10.0 mi West 10.4 mph - N/A   Overcast
4:56 PM 34.0 °F 25.0 °F 26.1 °F 73% 30.14 in 10.0 mi West 12.7 mph - N/A   Overcast
5:56 PM 32.0 °F 26.4 °F 24.1 °F 73% 30.15 in 10.0 mi WSW 5.8 mph - N/A   Mostly Cloudy
6:56 PM 32.0 °F 24.2 °F 24.1 °F 73% 30.16 in 10.0 mi WSW 9.2 mph - N/A   Mostly Cloudy
7:56 PM 30.9 °F 23.5 °F 23.0 °F 72% 30.18 in 10.0 mi SW 8.1 mph - N/A   Mostly Cloudy
8:56 PM 30.0 °F 23.2 °F 23.0 °F 75% 30.20 in 10.0 mi SW 6.9 mph - N/A   Clear
9:56 PM 28.9 °F 20.4 °F 21.9 °F 75% 30.22 in 10.0 mi SW 9.2 mph - N/A   Clear
10:56 PM 28.0 °F 20.0 °F 21.9 °F 78% 30.22 in 10.0 mi SW 8.1 mph - N/A   Clear
11:56 PM 28.0 °F 20.8 °F 21.9 °F 78% 30.25 in 10.0 mi SW 6.9 mph - N/A   Clear